TimeEDT,TemperatureF,Dew PointF,Humidity,Sea Level PressureIn,VisibilityMPH,Wind Direction,Wind SpeedMPH,Gust SpeedMPH,PrecipitationIn,Events,Conditions,WindDirDegrees,DateUTC
12:51 AM,48.9,28.9,46,30.34,10.0,Calm,Calm,-,N/A,,Clear,0,2013-05-01 04:51:00
1:51 AM,45.0,30.0,56,30.35,10.0,Calm,Calm,-,N/A,,Clear,0,2013-05-01 05:51:00
2:51 AM,45.0,33.1,63,30.35,10.0,North,4.6,-,N/A,,Clear,350,2013-05-01 06:51:00
3:51 AM,45.0,35.1,68,30.36,10.0,Calm,Calm,-,N/A,,Clear,0,2013-05-01 07:51:00
4:51 AM,43.0,34.0,71,30.37,10.0,Calm,Calm,-,N/A,,Clear,0,2013-05-01 08:51:00
5:51 AM,44.1,36.0,73,30.39,10.0,Calm,Calm,-,N/A,,Clear,0,2013-05-01 09:51:00
6:51 AM,46.0,36.0,68,30.41,10.0,North,4.6,-,N/A,,Clear,10,2013-05-01 10:51:00
7:51 AM,52.0,35.1,53,30.42,10.0,Calm,Calm,-,0.00,,Clear,0,2013-05-01 11:51:00
8:51 AM,57.0,30.9,37,30.44,10.0,NE,3.5,-,N/A,,Clear,50,2013-05-01 12:51:00
9:51 AM,60.1,28.0,30,30.44,10.0,East,6.9,-,N/A,,Clear,100,2013-05-01 13:51:00
10:51 AM,61.0,28.0,29,30.45,10.0,East,9.2,-,N/A,,Clear,90,2013-05-01 14:51:00
11:51 AM,63.0,36.0,37,30.44,10.0,East,11.5,24.2,N/A,,Clear,80,2013-05-01 15:51:00
12:51 PM,64.9,34.0,32,30.43,10.0,ENE,10.4,20.7,N/A,,Clear,70,2013-05-01 16:51:00
1:51 PM,66.0,41.0,40,30.43,10.0,ESE,5.8,18.4,N/A,,Clear,110,2013-05-01 17:51:00
2:51 PM,66.9,42.1,40,30.41,10.0,SE,6.9,-,N/A,,Clear,130,2013-05-01 18:51:00
3:51 PM,66.0,43.0,43,30.41,10.0,East,8.1,-,N/A,,Clear,90,2013-05-01 19:51:00
4:51 PM,68.0,45.0,43,30.41,10.0,SSE,11.5,24.2,N/A,,Partly Cloudy,160,2013-05-01 20:51:00
5:51 PM,63.0,44.1,50,30.43,10.0,SSE,10.4,-,N/A,,Clear,160,2013-05-01 21:51:00
6:51 PM,62.1,43.0,50,30.44,10.0,South,9.2,-,N/A,,Clear,190,2013-05-01 22:51:00
7:51 PM,57.9,43.0,58,30.45,10.0,South,9.2,-,N/A,,Clear,190,2013-05-01 23:51:00
8:51 PM,55.9,43.0,62,30.46,10.0,South,6.9,-,N/A,,Clear,170,2013-05-02 00:51:00
9:51 PM,53.1,44.1,71,30.48,10.0,Calm,Calm,-,N/A,,Clear,0,2013-05-02 01:51:00
10:51 PM,52.0,44.1,74,30.48,10.0,SSW,3.5,-,N/A,,Clear,200,2013-05-02 02:51:00
11:51 PM,50.0,43.0,77,30.48,10.0,Calm,Calm,-,N/A,,Clear,0,2013-05-02 03:51:00